AFR7521 LFRB-LFPG

Flight info

Callsign AFR7521
Flight time 0h 54m
Altitude 31000
Route SOMEN DCT OTOFE UN491 EKRAS/N0465F320 UN585 INGOR/N0460F280 UM25 LUKIP
Aircraft A320/M-SDE3FGHIRWY/LB1

Departure

Time 2026-05-01 11:40
Airport Brest Bretagne airport (LFRB)

Arrival

Time 2026-05-01 12:35
Airport Charles de Gaulle International Airport (LFPG)
Time Latitude Longitude Altitude Speed Heading
2026-05-01 11:05 48.44422 -4.42101 319 ft 0 kts 192°
2026-05-01 11:31 48.44434 -4.42097 319 ft 2 kts 192°
2026-05-01 11:31 48.44449 -4.42092 319 ft 2 kts 192°
2026-05-01 11:31 48.44459 -4.42089 319 ft 1 kts 192°
2026-05-01 11:31 48.44473 -4.42090 319 ft 2 kts 153°
2026-05-01 11:32 48.44484 -4.42105 319 ft 2 kts 115°
2026-05-01 11:32 48.44487 -4.42127 319 ft 2 kts 78°
2026-05-01 11:32 48.44482 -4.42144 319 ft 0 kts 46°
2026-05-01 11:32 48.44476 -4.42150 319 ft 1 kts 40°
2026-05-01 11:33 48.44475 -4.42152 318 ft 0 kts 41°
2026-05-01 11:35 48.44480 -4.42146 318 ft 3 kts 41°
2026-05-01 11:35 48.44512 -4.42108 319 ft 8 kts 37°
2026-05-01 11:36 48.44571 -4.42101 319 ft 9 kts 341°
2026-05-01 11:36 48.44641 -4.42138 319 ft 11 kts 341°
2026-05-01 11:36 48.44719 -4.42124 319 ft 12 kts 46°
2026-05-01 11:36 48.44751 -4.42008 321 ft 12 kts 71°
2026-05-01 11:37 48.44782 -4.41873 323 ft 16 kts 70°
2026-05-01 11:37 48.44826 -4.41681 325 ft 21 kts 71°
2026-05-01 11:37 48.44879 -4.41464 326 ft 21 kts 72°
2026-05-01 11:37 48.44923 -4.41251 327 ft 21 kts 73°
2026-05-01 11:38 48.44971 -4.41036 326 ft 21 kts 71°
2026-05-01 11:38 48.45020 -4.40819 324 ft 22 kts 71°
2026-05-01 11:38 48.45073 -4.40588 320 ft 23 kts 71°
2026-05-01 11:38 48.45128 -4.40346 316 ft 25 kts 71°
2026-05-01 11:39 48.45182 -4.40100 311 ft 14 kts 73°
2026-05-01 11:39 48.45195 -4.39948 309 ft 10 kts 103°
2026-05-01 11:39 48.45216 -4.39937 309 ft 8 kts 263°
2026-05-01 11:39 48.45201 -4.40020 310 ft 8 kts 251°
2026-05-01 11:40 48.45157 -4.40208 313 ft 47 kts 251°
2026-05-01 11:40 48.44974 -4.41021 326 ft 114 kts 251°
2026-05-01 11:40 48.44659 -4.42417 348 ft 164 kts 253°
2026-05-01 11:40 48.44331 -4.44000 988 ft 159 kts 253°
2026-05-01 11:41 48.44007 -4.45593 1599 ft 162 kts 254°
2026-05-01 11:41 48.43698 -4.47206 2239 ft 164 kts 251°
2026-05-01 11:41 48.43330 -4.48806 2896 ft 163 kts 248°
2026-05-01 11:41 48.42924 -4.50381 3551 ft 163 kts 248°
2026-05-01 11:42 48.42529 -4.51984 4041 ft 174 kts 255°
2026-05-01 11:42 48.42585 -4.53871 4404 ft 196 kts 292°
2026-05-01 11:42 48.43530 -4.55439 4796 ft 221 kts 330°
2026-05-01 11:42 48.45099 -4.55955 5238 ft 245 kts
2026-05-01 11:43 48.46782 -4.55276 5799 ft 260 kts 18°
2026-05-01 11:43 48.48569 -4.54426 6275 ft 279 kts 14°
2026-05-01 11:43 48.50502 -4.53839 6947 ft 290 kts
2026-05-01 11:44 48.54512 -4.53003 8648 ft 295 kts
2026-05-01 11:44 48.56568 -4.52584 9427 ft 300 kts
2026-05-01 11:44 48.58569 -4.51901 10182 ft 304 kts 25°
2026-05-01 11:44 48.60271 -4.49960 10791 ft 312 kts 53°
2026-05-01 11:45 48.61292 -4.47029 11191 ft 324 kts 71°
2026-05-01 11:45 48.62096 -4.43759 11544 ft 341 kts 72°
2026-05-01 11:45 48.62956 -4.40305 11828 ft 357 kts 71°
2026-05-01 11:45 48.63859 -4.36747 12130 ft 371 kts 71°
2026-05-01 11:46 48.64808 -4.33074 12450 ft 384 kts 70°
2026-05-01 11:46 48.65790 -4.29314 12971 ft 389 kts 71°
2026-05-01 11:46 48.66789 -4.25508 13589 ft 391 kts 71°
2026-05-01 11:46 48.67787 -4.21698 14178 ft 392 kts 71°
2026-05-01 11:47 48.68796 -4.17830 14696 ft 395 kts 71°
2026-05-01 11:47 48.69801 -4.13970 15213 ft 399 kts 71°
2026-05-01 11:47 48.70816 -4.10077 15774 ft 402 kts 71°
2026-05-01 11:47 48.71848 -4.06116 16350 ft 405 kts 71°
2026-05-01 11:48 48.72872 -4.02175 16875 ft 408 kts 71°
2026-05-01 11:48 48.73912 -3.98172 17390 ft 411 kts 71°
2026-05-01 11:48 48.74959 -3.94138 17920 ft 414 kts 71°
2026-05-01 11:48 48.76015 -3.90059 18419 ft 416 kts 71°
2026-05-01 11:49 48.77069 -3.85982 18869 ft 419 kts 71°
2026-05-01 11:49 48.78140 -3.81827 19352 ft 422 kts 71°
2026-05-01 11:49 48.79204 -3.77699 19809 ft 424 kts 71°
2026-05-01 11:49 48.80271 -3.73558 20280 ft 425 kts 71°
2026-05-01 11:50 48.81343 -3.69379 20704 ft 428 kts 71°
2026-05-01 11:50 48.82417 -3.65175 21149 ft 431 kts 71°
2026-05-01 11:50 48.83499 -3.60931 21572 ft 432 kts 72°
2026-05-01 11:50 48.84438 -3.56652 21961 ft 433 kts 77°
2026-05-01 11:51 48.85166 -3.52212 22391 ft 433 kts 81°
2026-05-01 11:51 48.85664 -3.47732 22802 ft 433 kts 84°
2026-05-01 11:51 48.86067 -3.43213 23202 ft 435 kts 85°
2026-05-01 11:51 48.86454 -3.38659 23592 ft 436 kts 85°
2026-05-01 11:52 48.86836 -3.34098 23948 ft 439 kts 86°
2026-05-01 11:52 48.87219 -3.29541 24283 ft 441 kts 86°
2026-05-01 11:52 48.87613 -3.24872 24610 ft 444 kts 86°
2026-05-01 11:52 48.88005 -3.20244 24927 ft 447 kts 85°
2026-05-01 11:53 48.88399 -3.15596 25236 ft 449 kts 85°
2026-05-01 11:53 48.88799 -3.10854 25538 ft 452 kts 85°
2026-05-01 11:53 48.89194 -3.06166 25826 ft 454 kts 85°
2026-05-01 11:53 48.89594 -3.01398 26113 ft 456 kts 85°
2026-05-01 11:54 48.89997 -2.96591 26387 ft 457 kts 85°
2026-05-01 11:54 48.90390 -2.91863 26637 ft 460 kts 85°
2026-05-01 11:54 48.90791 -2.87012 26898 ft 462 kts 85°
2026-05-01 11:54 48.91191 -2.82155 27158 ft 464 kts 85°
2026-05-01 11:55 48.91584 -2.77346 27459 ft 464 kts 85°
2026-05-01 11:55 48.91981 -2.72474 27830 ft 463 kts 85°
2026-05-01 11:55 48.92368 -2.67684 28202 ft 461 kts 85°
2026-05-01 11:55 48.92759 -2.62833 28555 ft 460 kts 85°
2026-05-01 11:56 48.93140 -2.58047 28875 ft 460 kts 85°
2026-05-01 11:56 48.93481 -2.53223 29211 ft 459 kts 87°
2026-05-01 11:56 48.93658 -2.48427 29558 ft 457 kts 90°
2026-05-01 11:56 48.93662 -2.43608 29831 ft 457 kts 93°
2026-05-01 11:57 48.93517 -2.38835 30053 ft 458 kts 94°
2026-05-01 11:57 48.93336 -2.33952 30294 ft 459 kts 95°
2026-05-01 11:57 48.93153 -2.29127 30523 ft 460 kts 95°
2026-05-01 11:57 48.92981 -2.24334 30730 ft 461 kts 95°
2026-05-01 11:58 48.92814 -2.19465 30938 ft 462 kts 95°
2026-05-01 11:58 48.92627 -2.14546 31153 ft 463 kts 95°
2026-05-01 11:59 48.92040 -1.99944 31202 ft 464 kts 95°
2026-05-01 11:59 48.91645 -1.90195 31199 ft 464 kts 95°
2026-05-01 12:00 48.91036 -1.75536 31203 ft 463 kts 95°
2026-05-01 12:01 48.90438 -1.60866 31201 ft 463 kts 92°
2026-05-01 12:01 48.91027 -1.51139 31191 ft 465 kts 79°
2026-05-01 12:02 48.93061 -1.41881 31193 ft 466 kts 66°
2026-05-01 12:02 48.96195 -1.33241 31208 ft 467 kts 62°
2026-05-01 12:03 48.99461 -1.24720 31186 ft 466 kts 62°
2026-05-01 12:03 49.02693 -1.16213 31194 ft 466 kts 62°
2026-05-01 12:04 49.05925 -1.07635 31196 ft 465 kts 62°
2026-05-01 12:04 49.09124 -0.99101 31190 ft 465 kts 62°
2026-05-01 12:05 49.12336 -0.90503 31192 ft 465 kts 62°
2026-05-01 12:05 49.17121 -0.77640 31187 ft 465 kts 62°
2026-05-01 12:06 49.20312 -0.69030 31191 ft 465 kts 63°
2026-05-01 12:06 49.23491 -0.60420 31190 ft 466 kts 63°
2026-05-01 12:07 49.26650 -0.51839 31184 ft 465 kts 63°
2026-05-01 12:07 49.29832 -0.43155 31179 ft 463 kts 63°
2026-05-01 12:08 49.32955 -0.34551 31169 ft 462 kts 66°
2026-05-01 12:08 49.35108 -0.25406 31164 ft 455 kts 80°
2026-05-01 12:09 49.35630 -0.20595 31051 ft 452 kts 87°
2026-05-01 12:09 49.35771 -0.15869 30798 ft 448 kts 94°
2026-05-01 12:09 49.35577 -0.11111 30542 ft 444 kts 97°
2026-05-01 12:09 49.35284 -0.06408 30231 ft 442 kts 98°
2026-05-01 12:10 49.34980 -0.01784 29624 ft 439 kts 98°
2026-05-01 12:10 49.34365 0.07531 27995 ft 439 kts 98°
2026-05-01 12:10 49.34061 0.12156 27098 ft 439 kts 98°
2026-05-01 12:11 49.33458 0.21393 25797 ft 437 kts 98°
2026-05-01 12:11 49.33157 0.25980 25244 ft 434 kts 98°
2026-05-01 12:11 49.32857 0.30534 24779 ft 425 kts 98°
2026-05-01 12:12 49.32564 0.34977 24553 ft 409 kts 98°
2026-05-01 12:12 49.32283 0.39208 24308 ft 396 kts 98°
2026-05-01 12:12 49.32006 0.43319 24057 ft 383 kts 98°
2026-05-01 12:12 49.31739 0.47308 23829 ft 371 kts 98°
2026-05-01 12:13 49.31573 0.51194 23559 ft 365 kts 95°
2026-05-01 12:13 49.31515 0.55054 22998 ft 365 kts 94°
2026-05-01 12:13 49.31472 0.58943 22490 ft 362 kts 94°
2026-05-01 12:13 49.31431 0.62754 22017 ft 360 kts 94°
2026-05-01 12:14 49.31389 0.66574 21543 ft 357 kts 95°
2026-05-01 12:14 49.31346 0.70334 21088 ft 354 kts 95°
2026-05-01 12:14 49.31302 0.74106 20643 ft 352 kts 95°
2026-05-01 12:14 49.31256 0.77778 20202 ft 349 kts 95°
2026-05-01 12:15 49.31210 0.81511 19756 ft 347 kts 95°
2026-05-01 12:15 49.31162 0.85147 19319 ft 345 kts 95°
2026-05-01 12:15 49.31113 0.88837 18872 ft 343 kts 95°
2026-05-01 12:15 49.31064 0.92470 18426 ft 339 kts 95°
2026-05-01 12:16 49.31014 0.96047 17968 ft 337 kts 95°
2026-05-01 12:16 49.30963 0.99612 17547 ft 334 kts 95°
2026-05-01 12:16 49.30911 1.03146 17116 ft 332 kts 95°
2026-05-01 12:16 49.30858 1.06653 16674 ft 330 kts 95°
2026-05-01 12:17 49.30806 1.10160 16237 ft 329 kts 95°
2026-05-01 12:17 49.30754 1.13665 15798 ft 328 kts 95°
2026-05-01 12:17 49.30701 1.17102 15376 ft 326 kts 94°
2026-05-01 12:17 49.30645 1.20608 14935 ft 326 kts 95°
2026-05-01 12:18 49.30591 1.24020 14521 ft 324 kts 95°
2026-05-01 12:18 49.30535 1.27454 14083 ft 322 kts 95°
2026-05-01 12:18 49.30475 1.30843 13675 ft 320 kts 95°
2026-05-01 12:18 49.30414 1.34220 13221 ft 317 kts 94°
2026-05-01 12:19 49.30355 1.37588 12814 ft 315 kts 94°
2026-05-01 12:19 49.30296 1.40915 12387 ft 313 kts 94°
2026-05-01 12:19 49.30235 1.44214 11958 ft 311 kts 94°
2026-05-01 12:19 49.30174 1.47547 11556 ft 308 kts 94°
2026-05-01 12:20 49.30115 1.50745 11418 ft 294 kts 94°
2026-05-01 12:20 49.30059 1.53774 11317 ft 283 kts 94°
2026-05-01 12:20 49.30002 1.56725 11171 ft 273 kts 95°
2026-05-01 12:20 49.29882 1.59696 11156 ft 282 kts 96°
2026-05-01 12:21 49.29744 1.62753 11170 ft 285 kts 96°
2026-05-01 12:21 49.29611 1.65803 11170 ft 286 kts 97°
2026-05-01 12:21 49.29476 1.68826 11037 ft 287 kts 97°
2026-05-01 12:21 49.29337 1.71860 10637 ft 285 kts 98°
2026-05-01 12:22 49.28810 1.74701 10219 ft 278 kts 123°
2026-05-01 12:22 49.27490 1.76782 10043 ft 273 kts 149°
2026-05-01 12:22 49.25765 1.78028 10069 ft 276 kts 157°
2026-05-01 12:22 49.23991 1.79197 10094 ft 276 kts 157°
2026-05-01 12:23 49.22251 1.80358 10112 ft 276 kts 156°
2026-05-01 12:23 49.20483 1.81546 10125 ft 276 kts 156°
2026-05-01 12:23 49.18711 1.82742 10065 ft 278 kts 156°
2026-05-01 12:23 49.17036 1.84155 9664 ft 279 kts 146°
2026-05-01 12:24 49.15546 1.86037 9298 ft 277 kts 137°
2026-05-01 12:24 49.14172 1.88074 8946 ft 275 kts 136°
2026-05-01 12:24 49.12799 1.90151 8581 ft 273 kts 136°
2026-05-01 12:24 49.11464 1.92173 8245 ft 271 kts 136°
2026-05-01 12:25 49.10141 1.94177 7901 ft 268 kts 136°
2026-05-01 12:25 49.07513 1.98107 7238 ft 261 kts 136°
2026-05-01 12:25 49.06230 2.00024 6916 ft 257 kts 136°
2026-05-01 12:26 49.04970 2.01910 6592 ft 253 kts 136°
2026-05-01 12:26 49.02491 2.05621 5958 ft 246 kts 136°
2026-05-01 12:26 49.01292 2.07413 5651 ft 243 kts 136°
2026-05-01 12:27 49.00087 2.09212 5341 ft 241 kts 136°
2026-05-01 12:27 48.97769 2.12729 4968 ft 225 kts 126°
2026-05-01 12:28 48.97087 2.17030 4966 ft 206 kts 89°
2026-05-01 12:28 48.97236 2.19153 4976 ft 195 kts 84°
2026-05-01 12:28 48.97559 2.22942 4490 ft 166 kts 86°
2026-05-01 12:29 48.97671 2.24614 4244 ft 153 kts 87°
2026-05-01 12:29 48.97762 2.26180 4016 ft 143 kts 88°
2026-05-01 12:29 48.97913 2.29181 3661 ft 142 kts 88°
2026-05-01 12:30 48.98056 2.32187 3317 ft 142 kts 88°
2026-05-01 12:30 48.98126 2.33666 3147 ft 141 kts 88°
2026-05-01 12:30 48.98198 2.35165 2973 ft 141 kts 88°
2026-05-01 12:31 48.98269 2.36641 2796 ft 140 kts 88°
2026-05-01 12:31 48.98342 2.38115 2620 ft 140 kts 87°
2026-05-01 12:31 48.98415 2.39587 2438 ft 139 kts 87°
2026-05-01 12:31 48.98489 2.41059 2251 ft 139 kts 87°
2026-05-01 12:32 48.98564 2.42538 2068 ft 139 kts 87°
2026-05-01 12:32 48.98714 2.45452 1703 ft 138 kts 86°
2026-05-01 12:32 48.98790 2.46900 1520 ft 138 kts 87°
2026-05-01 12:33 48.98865 2.48355 1350 ft 137 kts 86°
2026-05-01 12:33 48.98938 2.49792 1182 ft 137 kts 85°
2026-05-01 12:33 48.99014 2.51241 997 ft 137 kts 86°
2026-05-01 12:33 48.99089 2.52686 832 ft 137 kts 85°
2026-05-01 12:34 48.99165 2.54127 659 ft 136 kts 85°
2026-05-01 12:34 48.99246 2.55553 484 ft 135 kts 85°
2026-05-01 12:34 48.99303 2.56975 349 ft 133 kts 82°
2026-05-01 12:34 48.99388 2.58266 321 ft 99 kts 85°
2026-05-01 12:35 48.99410 2.58886 322 ft 38 kts 88°
2026-05-01 12:35 48.99461 2.59242 320 ft 22 kts 64°
2026-05-01 12:35 48.99516 2.59429 320 ft 17 kts 66°
2026-05-01 12:35 48.99558 2.59578 321 ft 14 kts 65°
2026-05-01 12:36 48.99623 2.59691 320 ft 15 kts
2026-05-01 12:36 48.99728 2.59687 321 ft 14 kts 355°
2026-05-01 12:36 48.99829 2.59674 323 ft 14 kts 355°
2026-05-01 12:36 48.99930 2.59662 323 ft 15 kts 355°
2026-05-01 12:37 49.00041 2.59648 324 ft 15 kts 355°
2026-05-01 12:37 49.00147 2.59635 326 ft 14 kts 355°
2026-05-01 12:37 49.00250 2.59620 327 ft 15 kts 345°
2026-05-01 12:37 49.00283 2.59489 327 ft 14 kts 267°
2026-05-01 12:38 49.00303 2.59349 327 ft 11 kts 306°
2026-05-01 12:38 49.00314 2.59264 328 ft 7 kts 264°
2026-05-01 12:38 49.00310 2.59199 329 ft 4 kts 265°
2026-05-01 12:38 49.00310 2.59195 329 ft 0 kts 265°